User: anonymous   Login
Location: Unspecified
(0.0000°N, 0.0000°E)
Time: 10:35:26
(UTC+00:00)
Language:

NOSS 2-3 (C) - Orbit

View from above orbital plane
View from above orbital plane
View from above satellite
View from above satellite

Ground track
Ground track

The orbit data is extracted from the following two-line orbital elements,

1 23908U 96029C   18203.83030295 0.00000000  00000-0  00000-0 0    05
2 23908  63.3695 103.7516 0641000  15.2398 344.7602 13.40879059    00
Epoch (UTC): 22 July 2018 19:55:38
Eccentricity: 0.0641000
inclination: 63.3695°
perigee height: 626 km
apogee height: 1586 km
right ascension of ascending node: 103.7516°
argument of perigee: 15.2398°
revolutions per day: 13.40879059
mean anomaly at epoch: 344.7602°
orbit number at epoch: 0

The dashed part of the orbit path shows where the satellite is in the earth's shadow,  

DLR